This demonstration page uses our WeatherBlox Daily Observations layout. Learn more.

Left ArrowRight Arrow

44.8408, -93.29828

Hourly Observations for May 27, 2021

Temp ( °F °C ) Dew Point ( °F °C ) Humidity (%) Winds ( mph kmh ) Pressure ( in mb ) Visibility ( mi km ) Precip ( " mm )
12:53 am 00:53 Cloudy 56 13.3 40 4.4 55 55 NNE 9 15 30.18 1022 10 16 0.00 0.00
1:53 am 01:53 Cloudy 56 13.3 40 4.4 55 55 NE 12 19 30.14 1021 10 16 0.00 0.00
2:53 am 02:53 Cloudy 55 12.8 39 3.9 55 55 ENE 13 20 30.14 1021 10 16 0.00 0.00
3:53 am 03:53 Cloudy 55 12.8 39 3.9 55 55 ENE 13 20 30.14 1021 10 16 0.00 0.00
4:53 am 04:53 Cloudy with Light Rain 54 12.2 41 5 62 62 E 6 9 30.17 1022 10 16 0.00 0.00
5:53 am 05:53 Cloudy with Light Rain 51 10.6 43 6.1 74 74 E 10 17 30.18 1022 7 11 0.01 0.25
6:53 am 06:53 Cloudy with Light Rain 49 9.4 43 6.1 80 80 ENE 13 20 30.16 1021 6 10 0.08 2.03
7:53 am 07:53 Cloudy with Rain 47 8.3 44 6.7 90 90 ENE 15 24 30.16 1021 7 11 0.10 2.54
8:28 am 08:28 Cloudy with Rain 47 8.3 43 6.1 86 86 ENE 16 26 30.19 1022 6 10 0.06 1.52
8:45 am 08:45 Cloudy with Rain 46 7.8 43 6.1 89 89 ENE 17 28 30.18 1022 6 10 0.10 2.54
8:53 am 08:53 Cloudy with Rain 47 8.3 43 6.1 86 86 E 17 28 30.16 1021 7 11 0.11 2.79
9:53 am 09:53 Cloudy with Rain 46 7.8 43 6.1 89 89 ENE 22 35 30.13 1020 5 8 0.13 3.30
10:34 am 10:34 Cloudy with Rain 47 8.3 44 6.7 90 90 E 14 22 30.19 1022 6 10 0.11 2.79
10:53 am 10:53 Cloudy with Rain 47 8.3 44 6.7 90 90 E 17 28 30.17 1022 7 11 0.16 4.06
11:39 am 11:39 Cloudy with Light Rain 47 8.3 44 6.7 90 90 E 18 30 30.16 1021 6 10 0.05 1.27
11:53 am 11:53 Cloudy with Rain 47 8.3 44 6.7 90 90 E 20 31 30.14 1021 6 10 0.07 1.78
12:12 pm 12:12 Cloudy with Rain 47 8.3 44 6.7 90 90 ENE 23 37 30.15 1021 5 8 0.03 0.76
12:53 pm 12:53 Cloudy with Light Rain 47 8.3 45 7.2 93 93 ENE 17 28 30.13 1020 6 10 0.08 2.03
1:04 pm 13:04 Cloudy with Light Rain 47 8.3 45 7.2 93 93 ENE 15 24 30.14 1021 7 11 0.01 0.25
1:43 pm 13:43 Cloudy with Light Rain 47 8.3 43 6.1 86 86 E 22 35 30.15 1021 7 11 0.06 1.52
1:53 pm 13:53 Cloudy with Light Rain 47 8.3 44 6.7 90 90 E 14 22 30.14 1021 7 11 0.07 1.78
2:53 pm 14:53 Cloudy with Light Rain 46 7.8 43 6.1 89 89 ENE 20 31 30.14 1021 6 10 0.06 1.52
3:00 pm 15:00 Cloudy with Light Rain 46 7.8 42 5.6 86 86 ENE 20 31 30.15 1021 7 11 0.01 0.25
3:37 pm 15:37 Cloudy with Light Rain 46 7.8 42 5.6 86 86 ENE 12 19 30.17 1022 10 16 0.03 0.76
3:53 pm 15:53 Cloudy with Light Rain 46 7.8 42 5.6 86 86 ENE 14 22 30.16 1021 5 8 0.04 1.02
4:41 pm 16:41 Cloudy with Light Rain 45 7.2 41 5 86 86 ENE 16 26 30.18 1022 5 8 0.02 0.51
4:53 pm 16:53 Cloudy with Light Rain 44 6.7 41 5 89 89 E 15 24 30.17 1022 5 8 0.02 0.51
5:11 pm 17:11 Cloudy with Light Rain 44 6.7 41 5 89 89 ENE 17 28 30.18 1022 5 8 0.01 0.25
5:30 pm 17:30 Cloudy 44 6.7 42 5.6 93 93 ENE 13 20 30.18 1022 7 11 0.01 0.25
5:53 pm 17:53 Cloudy 44 6.7 40 4.4 85 85 ENE 18 30 30.17 1022 10 16 0.01 0.25
6:45 pm 18:45 Cloudy 44 6.7 40 4.4 85 85 ENE 15 24 30.19 1022 10 16 0.00 0.00
6:53 pm 18:53 Cloudy 44 6.7 40 4.4 85 85 ENE 14 22 30.18 1022 10 16 0.00 0.00
7:53 pm 19:53 Cloudy 44 6.7 39 3.9 83 83 ENE 12 19 30.18 1022 10 16 0.00 0.00
8:53 pm 20:53 Cloudy 44 6.7 40 4.4 85 85 ENE 14 22 30.20 1023 8 13 0.00 0.00
9:53 pm 21:53 Cloudy with Light Rain 44 6.7 41 5 89 89 ENE 10 17 30.21 1023 10 16 0.00 0.00
10:20 pm 22:20 Cloudy 44 6.7 41 5 89 89 NE 10 17 30.23 1024 9 14 0.00 0.00
10:29 pm 22:29 Cloudy with Light Rain 44 6.7 41 5 89 89 NE 9 15 30.22 1023 7 11 0.00 0.00
10:53 pm 22:53 Cloudy with Mist and Fog 44 6.7 41 5 89 89 NNE 13 20 30.22 1023 5 8 0.01 0.25
11:36 pm 23:36 Cloudy with Light Rain 42 5.6 40 4.4 92 92 NE 10 17 30.25 1024 7 11 0.01 0.25
11:53 pm 23:53 Cloudy with Light Rain 42 5.6 39 3.9 89 89 NE 12 19 30.24 1024 7 11 0.01 0.25

Powered by AerisWeather